Regional Weather Roundup
Issued by NWS Northern Indiana

Home | Current Version | Previous Version | Graphics & Text | Print | Product List | Glossary On
Versions: 1 2 3 4 5 6 7 8 9 10 11 12 13 14 15 16 17 18 19 20 21 22 23 24 25 26 27 28 29 30 31 32 33 34 35 36 37 38 39 40 41 42 43 44 45 46 47 48 49 50
833
ASUS43 KIWX 010500
RWRIWX

KIWX WEATHER ROUNDUP
NATIONAL WEATHER SERVICE NORTHERN INDIANA
100 AM EDT SUN MAY 01 2016

NOTE: "FAIR" INDICATES FEW OR NO CLOUDS BELOW 12,000 FEET WITH NO
SIGNIFICANT WEATHER AND/OR OBSTRUCTIONS TO VISIBILITY.

* THESE STATIONS ARE NOT UNDER NWS QUALITY CONTROL. THEY ALSO MAY NOT
  REPORT WEATHER SUCH AS PRECIPITATION OR FOG.

INZ001>027-010600-
NORTHERN INDIANA

CITY           SKY/WX    TMP DP  RH WIND       PRES   REMARKS
SOUTH BEND     LGT RAIN  47  46  97 E9G17     29.90F FOG
GOSHEN         CLOUDY    47  45  93 NE9       29.89F FOG
ANGOLA*        CLOUDY    46  37  71 E10       29.90F
FORT WAYNE     DRIZZLE   50  48  93 E8        29.89S FOG

$$
INZ028>050-010600-
CENTRAL INDIANA

CITY           SKY/WX    TMP DP  RH WIND       PRES   REMARKS
LAFAYETTE      CLOUDY    56  55  97 N5        29.86R FOG
KOKOMO*        CLOUDY    59  55  88 SW3       29.86R
MUNCIE*        CLOUDY    63  59  87 SW8       29.86S
INDIANAPOLIS   CLOUDY    62  60  93 S10       29.85S

$$
MIZ043>046-050>051-056>058-064>065-071>073-077>080-010600-
SOUTHWEST LOWER MICHIGAN

CITY           SKY/WX    TMP DP  RH WIND       PRES   REMARKS
BATTLE CREEK   CLOUDY    48  46  93 E12       29.93F FOG
BENTON HARBOR  CLOUDY    49  47  93 E9        29.91F
COLDWATER*     LGT RAIN  47  47  98 NE9       29.92S
HILLSDALE*     DRIZZLE   47  47 100 E12       29.91F
HOLLAND        CLOUDY    48  47  96 NE7       29.95F
GRAND RAPIDS   CLOUDY    47  45  93 NE12      29.97F
KALAMAZOO      CLOUDY    48  45  89 NE7       29.92F FOG
STURGIS*       DRIZZLE   46  45  97 E12G17    29.89F
THREE RIVERS*  LGT RAIN  47  47  98 E9        29.91F

$$
OHZ001>008-015>018-024>025-010600-
NORTHWEST OHIO

CITY           SKY/WX    TMP DP  RH WIND       PRES   REMARKS
DEFIANCE       CLOUDY    50  47  89 NE8       29.90S
FINDLAY        LGT RAIN  53  49  86 E3        29.88F FOG
TOLEDO EXPRESS LGT RAIN  49  48  97 NE8       29.92R
TOLEDO METCALF LGT RAIN  50  48  93 NE5       29.93R FOG
LIMA           RAIN      55  54  96 S8        29.88S FOG

$$
AND FOR LAKE MICHIGAN COASTAL AND OPEN LAKE BUOY OBSERVATIONS

STATION/POSITION TEMP    WIND        PRES    VSBY  WAVE
                 AIR SEA DIR/SP/G                  HT/PER
                 (F)     (DEG/KT/KT) (MB)    (MI)  (FT/S)
CALUMET HARBOR    44      30/ 13/ 18 1012.2F
MICHIGAN CITY     47      30/ 12/ 13   N/A
BURNS HARBOR      47      40/ 15/ 19 1012.5F
SAINT JOSEPH      49      20/  3/  7 1013.5S
SOUTH LAKE BUOY   43 40   50/ 19/ 21 1014.1          2/ 4
4 MI NW BRIDGMAN  49 48                N/A           2/ 4

$$
&&




USA.gov is the U.S. government's official web portal to all federal, state and local government web resources and services.